User: anonymous   Login
Location: Unspecified
(0.0000°N, 0.0000°E)
Time: 18:26:27
(UTC+00:00)
Language:

SARAL - Orbit

View from above orbital plane
View from above orbital plane
View from above satellite
View from above satellite

Ground track
Ground track

The orbit data is extracted from the following two-line orbital elements,

1 39086U 13009A   17080.90158557 -.00000006 +00000-0 +13990-4 0  9998
2 39086 098.5406 269.8656 0001976 117.2548 242.8837 14.31996301212616
Epoch (UTC): 21 March 2017 21:38:16
Eccentricity: 0.0001976
inclination: 98.5406°
perigee height: 783 km
apogee height: 786 km
right ascension of ascending node: 269.8656°
argument of perigee: 117.2548°
revolutions per day: 14.31996301
mean anomaly at epoch: 242.8837°
orbit number at epoch: 21261

The dashed part of the orbit path shows where the satellite is in the earth's shadow,  

DLR